Wind_Speed
61 56 50 50 52 50 49 46 43 38 43 54 60 58 71 71 75 75 83 89 91 92 94 95 93 89 85 84 83 84 85 86 86 86 87 89 90 90 90 91 93 94 96
39 41 46 45 44 45 45 45 42 43 43 47 53 58 66 76 78 86 85 89 91 90 90 87 85 85 85 87 88 88 90 91 90 90 91 92 93 94 97 100 103 107 107
34 35 38 41 41 43 43 44 47 50 55 57 57 61 63 72 73 75 79 81 81 81 83 84 86 87 87 89 92 90 89 92 94 96 100 101 104 105 108 113 116 118 121
32 32 32 31 32 33 35 38 41 45 48 50 53 57 62 64 67 70 73 75 78 81 83 84 85 87 87 89 92 94 96 99 104 108 112 114 117 120 120 122 123 125 128
24 25 28 32 35 38 41 44 47 49 51 53 55 58 60 62 64 66 69 72 75 78 81 82 84 86 88 91 95 99 105 109 113 116 119 122 125 126 127 127 126 124 127
26 29 32 35 38 41 44 47 50 52 54 56 58 60 62 65 67 69 71 73 77 79 80 81 84 88 94 99 105 110 112 114 117 120 122 124 124 125 128 123 119 118 120
28 32 36 40 43 46 49 51 54 57 59 61 63 65 66 67 69 71 73 74 74 76 81 86 93 98 102 106 109 111 113 116 119 118 119 122 122 123 121 115 110 106 106
32 35 38 42 45 48 51 54 56 58 60 62 63 64 65 65 66 68 69 72 77 82 87 95 99 102 107 106 109 110 112 114 115 116 119 119 117 114 110 105 98 94 93
35 37 41 44 46 49 51 53 55 56 57 59 60 60 61 61 64 69 74 79 84 90 95 99 102 104 105 106 109 111 112 111 113 113 109 108 107 101 95 90 85 81 78
38 41 44 46 49 51 52 54 55 54 55 56 57 59 62 65 69 74 80 82 91 94 98 103 102 105 106 106 106 109 110 108 105 101 97 93 90 86 83 80 77 73 70
42 45 48 50 53 54 54 54 53 52 53 56 59 61 64 71 77 81 87 94 97 102 104 104 106 105 109 110 112 111 104 100 95 90 85 81 78 77 74 72 70 67 65
45 46 49 52 53 53 52 54 55 55 56 59 61 66 74 79 86 92 100 101 102 106 105 107 109 111 115 112 110 102 96 91 85 81 78 77 74 72 69 68 66 63 60
48 48 51 53 56 56 54 54 56 59 63 67 70 77 83 88 95 100 104 108 107 109 111 112 116 117 113 106 102 95 88 83 79 76 73 72 70 68 66 65 63 61 58
53 53 56 58 60 62 61 62 63 65 69 73 79 84 89 95 102 106 109 110 112 114 114 115 114 113 108 100 93 88 83 80 77 74 72 69 66 65 64 61 58 55 54
59 60 62 64 66 67 68 69 69 71 75 79 84 89 96 102 107 109 110 113 115 117 118 117 113 109 102 94 88 85 81 78 75 71 69 66 63 61 58 55 53 52 51
63 66 69 70 72 73 75 77 77 78 82 85 91 97 103 109 110 112 115 116 115 119 117 114 108 102 93 88 84 82 79 75 71 69 67 64 60 57 54 50 47 46 45
70 73 74 74 75 77 80 83 82 83 87 92 98 104 111 113 114 114 115 115 115 114 115 108 101 95 90 85 82 79 74 70 67 64 63 61 57 55 53 50 46 44 41
74 76 77 77 80 82 85 87 85 87 92 98 103 111 114 116 114 117 116 115 115 114 109 104 96 91 88 83 78 74 70 67 63 60 59 58 55 52 50 47 44 40 37
78 81 81 82 84 87 89 88 89 93 99 103 110 116 116 117 116 115 116 115 111 107 106 100 93 89 85 79 74 71 68 65 61 58 56 56 53 48 46 43 40 38 35
82 84 86 87 89 93 91 90 94 100 104 111 116 119 119 117 114 114 114 112 107 107 100 94 91 87 81 75 71 68 65 62 60 56 55 51 48 44 41 39 37 35 34
87 88 91 92 94 94 92 95 100 105 111 116 121 121 118 115 113 114 114 111 107 101 95 91 87 82 75 72 68 64 62 60 57 56 53 47 43 39 38 36 34 34 31
92 92 94 96 96 95 97 100 106 111 117 122 125 121 115 112 113 115 112 107 102 97 93 87 82 76 72 69 64 61 58 57 55 54 49 45 41 38 36 34 32 31 29
93 94 97 98 96 97 101 106 112 118 122 126 121 115 114 114 115 112 108 104 98 92 88 82 77 71 68 64 61 58 56 54 53 49 45 42 40 36 35 32 30 29 26
95 98 99 98 99 102 107 113 119 123 127 121 115 117 116 116 112 107 103 101 94 89 83 78 71 67 64 61 58 56 54 52 48 44 41 39 38 34 32 32 29 27 25
100 99 99 100 104 109 114 120 124 127 119 117 115 116 112 111 110 105 102 95 89 84 78 72 67 64 61 58 56 54 52 49 45 42 39 37 36 34 32 30 28 26 24
101 100 101 105 110 116 120 124 126 120 116 118 117 112 108 107 104 100 94 88 83 78 74 68 64 61 58 55 54 52 50 46 42 40 38 36 33 32 30 28 27 25 23
Wind_Direction
277 284 285 285 284 280 282 279 277 261 243 250 252 252 258 262 267 270 270 273 282 284 286 288 289 290 291 292 292 290 289 287 286 286 287 288 288 286 284 284 282 281 281
277 278 279 279 279 281 283 285 280 278 274 269 257 269 268 259 270 271 273 279 284 286 286 289 290 292 292 290 289 289 288 287 287 286 285 284 282 281 279 277 274 273 273
283 282 282 285 289 290 290 290 286 281 279 283 282 281 274 272 275 275 279 283 286 287 289 289 289 290 291 291 290 289 288 288 288 288 287 285 283 281 279 278 276 274 272
285 286 290 293 291 292 290 289 287 284 284 284 282 280 282 285 285 285 287 288 289 289 289 290 291 292 292 292 293 293 293 292 292 291 289 288 286 284 283 281 279 278 278
295 298 295 292 293 293 293 291 291 291 289 289 287 287 289 289 290 290 290 291 292 293 293 293 294 296 297 296 296 296 295 294 292 291 290 289 288 286 286 283 280 279 275
297 298 297 297 297 296 295 295 294 294 293 293 293 292 291 291 291 291 292 293 294 296 297 298 299 299 300 299 298 298 296 294 293 291 291 291 289 287 286 286 285 283 281
299 301 301 301 300 299 298 298 296 295 296 296 295 294 294 294 295 296 297 299 301 302 303 304 304 303 303 302 300 297 297 295 294 293 291 290 289 288 287 287 287 285 284
302 303 304 304 304 302 301 300 299 299 298 299 300 300 299 300 300 302 304 305 305 304 304 306 306 303 302 302 301 300 299 297 297 295 293 292 290 290 290 289 288 286 282
306 308 308 309 308 307 303 301 299 298 298 299 301 303 304 306 307 308 308 307 307 308 308 307 306 308 308 307 305 303 300 300 298 296 293 293 292 291 290 288 287 284 283
316 313 310 308 309 308 303 299 297 297 299 303 305 307 307 308 308 309 309 309 311 311 310 312 311 311 308 306 304 304 302 301 298 296 295 293 292 291 291 290 289 287 285
315 314 315 315 314 311 309 307 304 304 306 307 307 308 309 310 310 312 315 315 314 316 316 314 313 312 311 309 309 308 306 303 301 299 298 297 296 295 294 292 290 288 285
319 319 320 320 317 315 312 308 306 306 306 306 306 310 313 313 315 315 317 317 316 317 316 315 315 314 315 313 312 310 307 305 303 303 303 303 301 299 298 296 293 290 285
323 318 318 322 321 318 315 310 307 306 308 309 311 313 314 316 318 317 318 319 320 319 318 318 317 318 316 315 312 310 308 307 307 307 306 304 302 302 299 296 293 289 286
324 322 321 320 320 321 317 313 309 309 311 313 314 315 316 317 318 320 321 321 320 320 320 319 318 317 316 314 313 312 311 311 311 310 309 306 306 304 301 298 296 293 289
318 319 319 319 319 320 319 315 312 312 314 314 316 318 319 321 322 321 321 321 320 320 321 319 318 317 317 316 315 314 314 314 313 311 309 308 307 303 302 300 299 295 291
319 318 317 317 318 318 319 318 316 314 314 317 320 321 322 321 322 321 321 321 320 319 318 319 319 318 319 317 316 316 315 314 313 311 310 309 308 305 303 302 298 294 292
318 317 316 315 315 316 317 318 317 316 318 320 321 322 322 323 322 323 321 320 320 318 318 319 320 321 320 319 318 317 315 314 313 312 310 310 308 308 307 305 303 300 295
316 315 314 314 314 315 316 317 317 319 321 320 321 323 323 322 323 323 322 320 319 319 319 321 322 322 321 320 319 317 316 314 314 312 311 310 310 309 308 306 305 302 298
313 313 313 313 314 314 316 317 319 320 320 320 322 323 322 323 322 322 321 320 320 321 322 321 322 322 321 320 319 317 316 314 315 314 313 312 313 311 309 307 306 305 303
312 312 311 312 313 316 317 317 319 320 320 322 322 322 322 322 321 321 322 321 322 323 323 322 322 321 320 320 318 317 316 316 316 315 315 314 314 312 310 309 308 308 305
310 309 310 312 313 315 315 318 319 319 320 321 322 322 321 320 320 321 322 322 322 323 323 322 322 321 321 320 318 317 316 317 316 317 317 317 316 314 312 312 312 311 306
308 310 311 311 313 314 315 317 318 319 320 321 321 321 322 321 321 322 322 321 322 323 322 322 321 321 320 319 318 317 317 317 318 318 319 319 318 317 314 314 313 311 306
308 310 309 311 312 314 315 316 318 318 320 320 319 320 322 322 322 321 321 322 323 322 322 322 321 321 319 320 319 319 318 318 319 319 319 319 318 318 316 316 312 310 305
307 308 309 310 312 314 316 316 317 319 319 320 320 321 321 322 321 320 321 322 323 322 322 321 321 320 320 321 320 319 318 319 319 319 318 318 316 316 317 316 314 312 305
307 308 310 312 314 314 315 317 318 319 319 320 320 320 319 320 321 320 321 321 321 321 321 321 320 320 321 321 320 319 319 320 319 319 319 319 317 317 320 319 315 310 305
307 309 311 313 312 313 316 316 318 319 320 320 321 318 318 319 319 320 320 320 320 320 321 320 320 321 321 321 320 319 320 319 319 319 319 318 318 318 319 318 314 308 304
Height
10669 10668 10665 10661 10661 10660 10658 10656 10656 10656 10653 10644 10641 10633 10628 10620 10616 10609 10603 10596 10591 10586 10578 10572 10564 10556 10550 10544 10537 10531 10525 10518 10513 10508 10503 10497 10492 10487 10483 10479 10475 10470 10468
10658 10657 10653 10654 10651 10650 10648 10645 10644 10641 10637 10632 10628 10624 10618 10611 10606 10597 10593 10587 10578 10570 10563 10554 10545 10537 10530 10523 10516 10510 10502 10496 10491 10487 10483 10477 10470 10465 10457 10451 10444 10439 10435
10650 10648 10645 10645 10644 10641 10639 10636 10633 10630 10626 10622 10620 10615 10609 10602 10592 10586 10581 10573 10564 10554 10544 10535 10526 10518 10510 10502 10495 10487 10479 10472 10465 10458 10449 10445 10439 10432 10424 10414 10405 10397 10392
10643 10641 10639 10636 10633 10629 10627 10624 10621 10616 10612 10607 10601 10595 10589 10585 10578 10570 10563 10554 10544 10535 10526 10517 10509 10500 10492 10481 10472 10463 10454 10447 10437 10425 10414 10403 10394 10383 10381 10370 10360 10348 10334
10632 10631 10629 10627 10624 10621 10618 10614 10609 10605 10600 10595 10589 10582 10576 10569 10562 10554 10546 10537 10528 10518 10509 10499 10489 10480 10471 10460 10449 10437 10427 10416 10403 10390 10375 10361 10345 10334 10324 10319 10306 10302 10289
10629 10627 10624 10620 10616 10612 10608 10603 10597 10591 10585 10578 10572 10566 10560 10552 10545 10537 10529 10520 10509 10499 10489 10479 10469 10458 10447 10436 10423 10409 10394 10378 10363 10348 10333 10319 10305 10289 10277 10269 10260 10256 10241
10624 10620 10616 10612 10607 10602 10597 10591 10583 10576 10570 10563 10556 10550 10543 10535 10526 10518 10509 10501 10492 10481 10469 10458 10446 10433 10419 10405 10390 10374 10358 10343 10326 10311 10295 10278 10262 10247 10237 10230 10223 10215 10205
10616 10612 10607 10602 10597 10591 10585 10578 10571 10564 10556 10549 10541 10534 10527 10519 10510 10501 10493 10484 10473 10462 10449 10436 10422 10406 10390 10373 10357 10340 10322 10305 10288 10273 10256 10238 10222 10209 10199 10191 10184 10180 10172
10609 10604 10599 10593 10587 10580 10572 10565 10557 10550 10544 10536 10528 10520 10512 10503 10495 10486 10476 10466 10454 10442 10428 10412 10396 10376 10360 10342 10326 10308 10288 10270 10252 10234 10218 10202 10187 10175 10166 10158 10152 10148 10145
10599 10594 10589 10583 10576 10568 10560 10553 10545 10537 10530 10522 10514 10506 10497 10488 10479 10469 10459 10447 10434 10419 10403 10385 10366 10348 10330 10311 10293 10275 10254 10236 10217 10201 10186 10173 10159 10146 10137 10128 10123 10119 10117
10589 10583 10577 10570 10562 10554 10546 10537 10530 10523 10515 10508 10500 10492 10483 10474 10463 10452 10439 10425 10409 10391 10373 10354 10335 10316 10296 10277 10257 10237 10217 10200 10184 10169 10156 10143 10131 10119 10111 10104 10097 10093 10089
10579 10573 10567 10559 10551 10542 10534 10526 10518 10510 10503 10495 10486 10477 10466 10454 10442 10428 10413 10397 10381 10362 10343 10324 10304 10284 10263 10242 10222 10203 10186 10169 10156 10141 10128 10115 10104 10094 10087 10078 10072 10069 10065
10570 10565 10557 10549 10539 10530 10521 10513 10505 10496 10487 10478 10468 10458 10446 10433 10419 10404 10387 10368 10350 10333 10314 10294 10273 10253 10232 10211 10192 10175 10158 10143 10130 10117 10105 10092 10082 10073 10064 10056 10051 10046 10042
10559 10551 10543 10534 10525 10516 10508 10499 10490 10481 10471 10462 10450 10439 10425 10410 10394 10377 10358 10340 10322 10305 10285 10265 10245 10225 10204 10182 10164 10149 10133 10120 10106 10093 10081 10071 10062 10053 10043 10035 10029 10024 10019
10546 10538 10528 10519 10511 10503 10494 10484 10474 10465 10454 10443 10432 10418 10402 10386 10368 10350 10333 10315 10295 10276 10259 10238 10219 10198 10178 10157 10140 10125 10111 10098 10084 10073 10063 10053 10045 10035 10027 10020 10012 10006 10000
10532 10523 10514 10504 10495 10486 10477 10468 10457 10447 10436 10424 10409 10394 10379 10362 10345 10327 10310 10290 10273 10252 10232 10214 10194 10173 10155 10137 10120 10104 10091 10079 10068 10055 10044 10036 10028 10019 10011 10005 9999 9993 9986
10517 10507 10498 10489 10480 10470 10460 10450 10439 10428 10415 10401 10387 10372 10356 10337 10321 10304 10286 10267 10250 10230 10208 10188 10168 10149 10132 10116 10100 10086 10073 10062 10052 10042 10029 10019 10013 10003 9994 9988 9983 9977 9971
10502 10493 10484 10474 10464 10453 10443 10432 10420 10408 10394 10380 10365 10349 10332 10314 10297 10280 10261 10243 10224 10204 10183 10162 10143 10126 10110 10096 10082 10068 10057 10046 10038 10027 10016 10007 9998 9990 9981 9974 9968 9963 9958
10487 10478 10467 10456 10447 10437 10426 10412 10399 10387 10373 10358 10344 10327 10309 10292 10275 10257 10237 10218 10200 10180 10160 10140 10122 10107 10092 10077 10065 10052 10041 10030 10022 10013 10004 9993 9983 9976 9969 9963 9956 9951 9946
10470 10459 10449 10440 10429 10417 10405 10392 10380 10366 10352 10337 10322 10304 10288 10271 10252 10232 10213 10194 10175 10158 10138 10120 10103 10087 10074 10061 10050 10037 10026 10015 10007 9999 9991 9982 9973 9965 9957 9952 9946 9941 9936
10453 10442 10432 10421 10409 10398 10385 10372 10360 10346 10331 10316 10299 10281 10265 10247 10227 10207 10188 10171 10155 10137 10119 10104 10087 10071 10057 10046 10035 10024 10013 10002 9993 9985 9977 9970 9962 9955 9948 9942 9936 9931 9927
10434 10423 10412 10401 10390 10379 10366 10354 10340 10325 10310 10292 10275 10259 10240 10220 10200 10183 10166 10150 10133 10115 10099 10084 10070 10056 10044 10033 10022 10012 10001 9991 9981 9972 9964 9957 9951 9945 9939 9934 9929 9925 9921
10415 10405 10393 10383 10371 10359 10347 10334 10319 10304 10286 10270 10252 10233 10215 10197 10179 10163 10146 10129 10114 10098 10082 10068 10054 10042 10030 10020 10009 9999 9989 9980 9971 9962 9955 9948 9942 9937 9931 9926 9922 9918 9915
10398 10386 10374 10363 10351 10338 10325 10312 10296 10279 10263 10244 10226 10208 10191 10173 10156 10140 10124 10109 10094 10079 10065 10051 10039 10028 10017 10006 9996 9987 9979 9970 9962 9955 9949 9941 9934 9929 9924 9917 9914 9911 9907
10377 10366 10354 10340 10328 10314 10301 10287 10271 10255 10235 10217 10201 10185 10168 10152 10135 10119 10104 10090 10076 10061 10049 10037 10026 10015 10004 9995 9986 9977 9969 9961 9953 9946 9940 9934 9927 9921 9916 9911 9907 9904 9902
10353 10342 10331 10318 10305 10291 10277 10263 10247 10227 10211 10194 10178 10162 10146 10131 10115 10099 10086 10072 10059 10047 10034 10023 10013 10002 9992 9984 9975 9968 9960 9951 9944 9937 9931 9926 9920 9915 9910 9905 9901 9899 9896